This is the latest recevied weather packets stored in our database for station/object DG6YGE-6. If no packets are shown the sender has not sent any weather packets the latest 10 day(s).
| Time | Temp. | Humidity | Pressure | Rain* | Wind** | Luminosity | Snow |
|---|---|---|---|---|---|---|---|
| 1788593351 | 16.67° C | 84% | 1015.9 hPa | 0 mm | - | 305 W/m² | - |
| 1788592751 | 16.11° C | 85% | 1015.8 hPa | 0 mm | - | 281 W/m² | - |
| 1788592151 | 15.56° C | 87% | 1015.8 hPa | 0 mm | - | 257 W/m² | - |
| 1788591551 | 15° C | 88% | 1015.5 hPa | 0 mm | - | 235 W/m² | - |
| 1788590951 | 14.44° C | 89% | 1015.5 hPa | 0 mm | - | 207 W/m² | - |
| 1788590351 | 13.89° C | 89% | 1015.4 hPa | 0 mm | - | 184 W/m² | - |
| 1788589751 | 13.89° C | 89% | 1015.3 hPa | 0 mm | - | 158 W/m² | - |
| 1788589151 | 13.89° C | 90% | 1015 hPa | 0 mm | - | 131 W/m² | - |
| 1788588551 | 13.33° C | 90% | 1015.1 hPa | 0 mm | - | 105 W/m² | - |
| 1788587951 | 13.33° C | 90% | 1014.9 hPa | 0 mm | - | 84 W/m² | - |
| 1788587351 | 13.33° C | 91% | 1014.8 hPa | 0 mm | - | 69 W/m² | - |
| 1788586751 | 13.33° C | 91% | 1014.9 hPa | 0 mm | - | 47 W/m² | - |
| 1788586151 | 13.33° C | 91% | 1014.8 hPa | 0 mm | - | 32 W/m² | - |
| 1788585579 | 13.33° C | 90% | 1014.7 hPa | 0 mm | - | 20 W/m² | - |
| 1788584951 | 13.33° C | 90% | 1014.7 hPa | 0 mm | - | 13 W/m² | - |
| 1788584351 | 13.33° C | 90% | 1014.6 hPa | 0 mm | - | 8 W/m² | - |
| 1788583751 | 13.33° C | 90% | 1014.5 hPa | 0 mm | - | 2 W/m² | - |
| 1788583151 | 13.33° C | 90% | 1014.4 hPa | 0 mm | - | 0 W/m² | - |
| 1788582551 | 13.33° C | 90% | 1014.4 hPa | 0 mm | - | 0 W/m² | - |
| 1788581951 | 13.33° C | 90% | 1014.3 hPa | 0 mm | - | 0 W/m² | - |
| 1788581351 | 13.33° C | 90% | 1014.1 hPa | 0 mm | - | 0 W/m² | - |
| 1788580751 | 13.33° C | 90% | 1014.2 hPa | 0 mm | - | 0 W/m² | - |
| 1788580151 | 13.33° C | 90% | 1014.2 hPa | 0 mm | - | 0 W/m² | - |
| 1788579551 | 13.33° C | 90% | 1014.2 hPa | 0 mm | - | 0 W/m² | - |
| 1788578951 | 13.33° C | 90% | 1014.1 hPa | 0 mm | - | 0 W/m² | - |
* Rain latest hour (hover to see other rain measurements)
** Current wind speed in m/s (hover to see current wind gust speed)